Find Starlink 35296

NORAD ID: 65801 Int'l Des: 2025-218 Owner: SPXS Country: US Constellation: starlink operational
LEOCIRCULARRETROGRADESSO

实时位置

正在加载3D地球...

关于 Starlink 35296

正在加载描述...

即将过境

Passes for default location (London). Set your location on the main map for personalized predictions.

高度历史

Loading altitude history...

两行轨道根数

1 65801U 25218L 26106.17435027 .00002326 00000-0 16536-3 0 9999
2 65801 97.6043 329.9537 0001853 78.8330 281.3105 15.05652144 30618
Epoch: Apr 16, 2026 • Age: 10 hours

当前状态

高度 551.8 km
速度 7.59 km/s
星下点 17.31°N, 90.89°E
发射日期 Sep 26, 2025
运行时间 0.5 years
类型 internet

技术详情

分类 Payload
质量 575.00 kg
干质量 530.00 kg
总质量 575.00 kg
长度 0.30 m
直径 4.10 m
跨度 29.00 m
形状 Box + pan
制造商 SPXS
平台类型 Starlink V2MO
阶段状态 In Orbit
所有者/国家 SPXS/US

Most Searched